"Pseudo-MPEC" for C0FLNH2

Created 2019 Apr 22 11:07:01 UT using Find_Orb

Click here for an explanation of pseudo-MPECs

 
 Astrometry: 
     C0FLNH2  C2019 04 08.39321 14 43 39.21 -10 49 29.2    ~48A3 20.5 GVNEOCPG96
     C0FLNH2  C2019 04 08.39834 14 43 36.79 -10 50 36.1    ~48A3 20.5 GVNEOCPG96
     C0FLNH2  C2019 04 08.40349 14 43 34.35 -10 51 42.9    ~48A3 21.1 GVNEOCPG96
     C0FLNH2  C2019 04 08.40864 14 43 31.98 -10 52 49.2    ~48A3 20.8 GVNEOCPG96
     C0FLNH2  C2019 04 08.48113 14 42 57.93 -11 08 27.2    ~48C3 20.4 GVNEOCPI52
     C0FLNH2  C2019 04 08.48279 14 42 57.18 -11 08 49.2    ~48C3 20.3 GVNEOCPI52
     C0FLNH2  C2019 04 08.48446 14 42 56.35 -11 09 10.6    ~48C3 21.0 GVNEOCPI52
     C0FLNH2  C2019 04 08.48613 14 42 55.55 -11 09 31.5    ~48C3 21.5 GVNEOCPI52

Station data:
(G96) Mt. Lemmon Survey  (N32.442754 W110.788720)  US/Arizona.  Observers T.
   A. Pruyne, B. M. Africano, E. J. Christensen, G. A. Farneth, D. C. Fuls,
   A. R. Gibbs, A. D. Grauer, H. Groeller, J. A. Johnson, R. A. Kowalski, S.
   M. Larson, G. J. Leonard, R. L. Seaman, F. C. Shelly. 1.5-m reflector +
   10K CCD.
(I52) Steward Observatory, Mt. Lemmon Station  (N32.442547 W110.788920)
   US/Arizona.  Observers T. A. Pruyne, B. M. Africano, E. J. Christensen, G.
   A. Farneth, D. C. Fuls, A. R. Gibbs, A. D. Grauer, H. Groeller, J. A.
   Johnson, R. A. Kowalski, S. M. Larson, G. J. Leonard, R. L. Seaman, F. C.
   Shelly. 1.0-m reflector + CCD.

Orbital elements:  C0FLNH2
   Perihelion 2019 May 5.627901 +/- 59.1 TT = 15:04:10 (JD 2458609.127901)
Epoch 2019 Apr  8.0 TT = JDT 2458581.5   Earth MOID: 0.1057   Ma: 0.0224
M 340.63100451 +/- 50               (J2000 ecliptic)          AutoNEOCP
n   0.70106647 +/- 0.302            Peri.  203.50971 +/- 60
a   1.25496009 +/- 0.361            Node    21.37254 +/- 0.8
e   0.1246755 +/- 0.171             Incl.   29.14421 +/- 12
P   1.41/513.49d           H 24.5   G  0.15   U 11.9  SR
q 1.09849727 +/- 0.167    Q 1.41142291 +/- 1.31
From 8 observations 2019 Apr. 8 (2.2 hr); mean residual 0".32
Residuals in arcseconds: 
190408 G96  .05+  .42+    190408 G96  .40+  .00     190408 I52  .19-  .19-    
190408 G96  .08-  .13-    190408 I52  .14+  .10+    190408 I52  .47-  .54+    
190408 G96  .36-  .32-    190408 I52  .53+  .41-    

Ephemerides (geocentric):
Date (UTC) HH   RA              Dec         delta   r     elong  mag " sig PA
---- -- -- --  -------------   -----------  ------ ------ -----  --- ---- ---
2019 04 22 11  11 51 40.946   -55 27 43.28  .14085 1.1011 130.1 22.1 0.0  136
2019 04 22 12  11 51 02.048   -55 31 33.51  .14108 1.1011 130.0 22.1 0.0  136
2019 04 22 13  11 50 23.160   -55 35 22.13  .14131 1.1011 129.9 22.1 0.0  136
2019 04 22 14  11 49 44.282   -55 39 09.14  .14153 1.1011 129.8 22.1 0.0  135
2019 04 22 15  11 49 05.416   -55 42 54.56  .14176 1.1011 129.7 22.1 0.0  135
2019 04 22 16  11 48 26.563   -55 46 38.38  .14199 1.1010 129.6 22.1 0.0  135
2019 04 22 17  11 47 47.722   -55 50 20.61  .14222 1.1010 129.4 22.2 0.0  135
2019 04 22 18  11 47 08.895   -55 54 01.27  .14245 1.1010 129.3 22.2 0.0  135
2019 04 22 19  11 46 30.082   -55 57 40.34  .14269 1.1010 129.2 22.2 0.0  135
2019 04 22 20  11 45 51.285   -56 01 17.85  .14292 1.1010 129.1 22.2 0.0  135
2019 04 22 21  11 45 12.503   -56 04 53.80  .14315 1.1010 129.0 22.2 0.0  135
2019 04 22 22  11 44 33.738   -56 08 28.19  .14338 1.1009 128.9 22.2 0.0  135
2019 04 22 23  11 43 54.990   -56 12 01.02  .14362 1.1009 128.8 22.2 0.0  135
2019 04 23 00  11 43 16.261   -56 15 32.32  .14385 1.1009 128.7 22.2 0.0  135
2019 04 23 01  11 42 37.550   -56 19 02.08  .14408 1.1009 128.6 22.2 0.0  134
2019 04 23 02  11 41 58.859   -56 22 30.30  .14432 1.1009 128.5 22.2 0.0  134
2019 04 23 03  11 41 20.188   -56 25 57.00  .14456 1.1009 128.4 22.2 0.0  134
2019 04 23 04  11 40 41.538   -56 29 22.19  .14479 1.1009 128.3 22.2 0.0  134
2019 04 23 05  11 40 02.910   -56 32 45.86  .14503 1.1008 128.2 22.2 0.0  134
2019 04 23 06  11 39 24.304   -56 36 08.02  .14527 1.1008 128.1 22.2 0.0  134
2019 04 23 07  11 38 45.722   -56 39 28.69  .14550 1.1008 127.9 22.2 0.0  134
2019 04 23 08  11 38 07.163   -56 42 47.86  .14574 1.1008 127.8 22.2 0.0  134
2019 04 23 09  11 37 28.629   -56 46 05.54  .14598 1.1008 127.7 22.2 0.0  134
2019 04 23 10  11 36 50.120   -56 49 21.75  .14622 1.1008 127.6 22.3 0.0  134
2019 04 23 11  11 36 11.637   -56 52 36.48  .14646 1.1007 127.5 22.3 0.0  134
2019 04 23 12  11 35 33.181   -56 55 49.75  .14670 1.1007 127.4 22.3 0.0  134
2019 04 23 13  11 34 54.752   -56 59 01.55  .14694 1.1007 127.3 22.3 0.0  133
2019 04 23 14  11 34 16.352   -57 02 11.90  .14718 1.1007 127.2 22.3 0.0  133
2019 04 23 15  11 33 37.980   -57 05 20.81  .14742 1.1007 127.1 22.3 0.0  133
2019 04 23 16  11 32 59.637   -57 08 28.27  .14766 1.1007 127.0 22.3 0.0  133
2019 04 23 17  11 32 21.325   -57 11 34.30  .14791 1.1007 126.9 22.3 0.0  133
2019 04 23 18  11 31 43.044   -57 14 38.90  .14815 1.1006 126.8 22.3 0.0  133
2019 04 23 19  11 31 04.794   -57 17 42.08  .14839 1.1006 126.7 22.3 0.0  133
2019 04 23 20  11 30 26.577   -57 20 43.85  .14864 1.1006 126.6 22.3 0.0  133
2019 04 23 21  11 29 48.392   -57 23 44.21  .14888 1.1006 126.5 22.3 0.0  133
2019 04 23 22  11 29 10.241   -57 26 43.17  .14913 1.1006 126.4 22.3 0.0  133
2019 04 23 23  11 28 32.124   -57 29 40.73  .14937 1.1006 126.3 22.3 0.0  133
2019 04 24 00  11 27 54.042   -57 32 36.91  .14962 1.1005 126.2 22.3 0.0  133
2019 04 24 01  11 27 15.995   -57 35 31.71  .14986 1.1005 126.1 22.3 0.0  132
2019 04 24 02  11 26 37.985   -57 38 25.13  .15011 1.1005 126.0 22.3 0.0  132
2019 04 24 03  11 26 00.012   -57 41 17.19  .15036 1.1005 125.9 22.4 0.0  132
2019 04 24 04  11 25 22.076   -57 44 07.88  .15060 1.1005 125.8 22.4 0.0  132
2019 04 24 05  11 24 44.178   -57 46 57.23  .15085 1.1005 125.7 22.4 0.0  132
2019 04 24 06  11 24 06.319   -57 49 45.22  .15110 1.1005 125.6 22.4 0.0  132
2019 04 24 07  11 23 28.500   -57 52 31.87  .15135 1.1004 125.5 22.4 0.0  132
2019 04 24 08  11 22 50.720   -57 55 17.20  .15160 1.1004 125.4 22.4 0.0  132
2019 04 24 09  11 22 12.982   -57 58 01.19  .15185 1.1004 125.3 22.4 0.0  132
2019 04 24 10  11 21 35.284   -58 00 43.86  .15210 1.1004 125.2 22.4 0.0  132